Regional Weather Roundup
Issued by NWS Jackson, KY

Home | Current Version | Previous Version | Graphics & Text | Print | Product List | Glossary On
Versions: 1 2 3 4 5 6 7 8 9 10 11 12 13 14 15 16 17 18 19 20 21 22 23 24 25 26 27 28 29 30 31 32 33 34 35 36 37 38 39 40 41 42 43 44 45 46 47 48 49 50
112
ASUS43 KJKL 091610
RWRJKL

EAST KENTUCKY HOURLY WEATHER ROUNDUP
NATIONAL WEATHER SERVICE JACKSON KY
1100 AM EST TUE FEB 09 2016

NOTE: "FAIR" INDICATES FEW OR NO CLOUDS BELOW 12,000 FEET WITH
NO SIGNIFICANT WEATHER AND/OR OBSTRUCTIONS TO VISIBILITY.

* THESE REPORTS ARE NOT UNDER NWS QUALITY CONTROL AND MAY NOT
  REPORT WEATHER SUCH AS PRECIPITATION AND FOG.

KYZ079-080-083-085-087-088-110-112-115-119-120-091700
...EASTERN KENTUCKY...

CITY           SKY/WX    TMP DP  RH WIND       PRES   REMARKS
JACKSON        LGT SNOW  22  14  71 VRB3      29.77R
LONDON         LGT SNOW  21  15  78 W9        29.81R WCI  11
SOMERSET*      FLURRIES  21  16  79 W10       29.86S WCI  10
MONTICELLO*    FLURRIES  22  16  78 W12       29.86S WCI  10
WILLIAMSBURG*  CLOUDY    23  18  80 CALM      29.83R
MIDDLESBORO*   CLOUDY    24  15  68 W7        29.82S WCI  15
HARLAN APT*    CLOUDY    23  12  63 SW12G17   29.77S WCI  12
BLACK MTN*       N/A     14  12  92 W1          N/A
BIG SANDY*     CLOUDY    22  13  66 W6        29.77S WCI  15
MOREHEAD APT*  LGT SNOW  23  14  68 SW10G17   29.80S WCI  12
$$

KYZ035-036-041-042-044-050-067-078-099-091700
...CENTRAL KENTUCKY...

CITY           SKY/WX    TMP DP  RH WIND       PRES   REMARKS
MT STERLING*   LGT SNOW  23  18  80 W13       29.81S WCI  11
DANVILLE*      CLOUDY    23  16  74 W8        29.83S WCI  14
RICHMOND*      CLOUDY    21  14  73 W14       29.81S WCI   8
LEXINGTON      CLOUDY    22  16  78 W12       29.80S WCI  10
FRANKFORT      CLOUDY    23  15  71 W8G17     29.81S WCI  14
$$

KYZ091>093-OHZ055-061-077-WVZ005-015-034-035-042-091700
...SOUTHERN OHIO/WEST VIRGINIA...

CITY           SKY/WX    TMP DP  RH WIND       PRES   REMARKS
COVINGTON      LGT SNOW  22  17  81 W10       29.77S WCI  11
COLUMBUS       CLOUDY    23  18  81 SW12      29.68S WCI  12
DAYTON         CLOUDY    24  19  81 W18       29.71S WCI  10
WILMINGTON     LGT SNOW  21  17  84 W16       29.71S FOG     WCI   7
HUNTINGTON     FLURRIES  24  13  62 W9G17     29.77S WCI  14
CHARLESTON     FLURRIES  25  13  60 W8        29.73F WCI  16
PINEVILLE*     CLOUDY    26  16  68 MISG      29.73S
BECKLEY        LGT SNOW  21  14  74 W8        29.62F WCI  11
$$

VAZ002-007-008-TNZ017-027-036-066-071-091700
...SOUTHWEST VIRGINIA/EAST TENNESSEE...

CITY           SKY/WX    TMP DP  RH WIND       PRES   REMARKS
BRISTOL        CLOUDY    24  15  68 W14       29.76R WCI  12
KNOXVILLE      CLOUDY    27  16  63 W13       29.84S WCI  16
OAK RIDGE      CLOUDY    27  17  66 W7        29.85F WCI  19
CROSSVILLE     LGT SNOW  21  16  81 W8        29.80R WCI  11
NASHVILLE      LGT SNOW  26  20  77 NW6       29.91S VSB 1   WCI  19
$$

...KEY TO REMARKS...
VSB - VISIBILITY IN MILES
WCI - WIND CHILL INDEX
HX  - HEAT INDEX

$$




USA.gov is the U.S. government's official web portal to all federal, state and local government web resources and services.